User: anonymous   Login
Location: Meriden
(44.0740°N, 93.3870°W)
Time: 18:25:22
(UTC-05:00)
Language:

AO-27 - Orbit

View from above orbital plane
View from above orbital plane
View from above satellite
View from above satellite

Ground track
Ground track

The orbit data is extracted from the following two-line orbital elements,

1 22825U 93061C   18142.47241808 +.00000005 +00000-0 +19808-4 0  9993
2 22825 098.8607 118.1246 0009443 064.9130 295.3030 14.30030466285627
Epoch (UTC): 22 May 2018 11:20:16
Eccentricity: 0.0009443
inclination: 98.8607°
perigee height: 785 km
apogee height: 798 km
right ascension of ascending node: 118.1246°
argument of perigee: 64.9130°
revolutions per day: 14.30030466
mean anomaly at epoch: 295.3030°
orbit number at epoch: 28562

The dashed part of the orbit path shows where the satellite is in the earth's shadow,  

DLR